CST,Max TemperatureF,Mean TemperatureF,Min TemperatureF,Max Dew PointF,MeanDew PointF,Min DewpointF,Max Humidity, Mean Humidity, Min Humidity, Max Sea Level PressureIn, Mean Sea Level PressureIn, Min Sea Level PressureIn, Max VisibilityMiles, Mean VisibilityMiles, Min VisibilityMiles, Max Wind SpeedMPH, Mean Wind SpeedMPH, Max Gust SpeedMPH,PrecipitationIn, CloudCover, Events, WindDirDegrees
2013-2-1,43,26,10,32,22,4,87,74,57,30.28,30.10,29.97,10,10,10,24,10,29,0.00,5,,219
2013-2-2,54,42,30,33,27,22,89,61,28,30.24,30.16,30.09,10,10,10,21,11,33,0.00,1,,289
2013-2-3,50,38,25,29,25,21,84,63,37,30.24,30.03,29.81,10,10,10,21,8,26,0.00,0,,232
2013-2-4,45,38,30,31,28,25,89,73,56,29.98,29.89,29.81,10,10,10,13,8,17,0.00,0,,67
2013-2-5,55,42,29,31,27,23,90,60,28,30.04,29.95,29.84,10,10,10,13,7,17,0.00,1,,314
2013-2-6,54,43,32,40,33,28,91,71,50,29.96,29.85,29.76,10,10,7,17,10,25,0.00,1,,180
2013-2-7,54,40,26,37,27,21,90,61,28,30.20,30.07,29.90,10,10,10,15,11,22,0.00,1,,9
2013-2-8,43,32,21,33,27,19,97,84,56,30.20,30.09,29.93,10,7,0,25,10,31,0.00,2,Fog,150
2013-2-9,51,40,30,42,33,28,94,81,45,29.93,29.72,29.44,10,7,2,26,17,37,0.02,3,Rain-Thunderstorm,154
2013-2-10,42,36,29,41,28,21,95,78,64,29.96,29.53,29.18,10,9,0,33,20,48,0.03,7,Fog-Rain,299
2013-2-11,37,29,21,21,17,14,83,62,39,30.15,30.09,29.97,10,10,10,17,10,23,0.00,0,,304
2013-2-12,47,34,20,22,16,7,80,56,19,30.10,30.00,29.94,10,10,10,15,7,20,0.00,0,,280
2013-2-13,55,40,25,31,22,19,80,56,27,29.94,29.86,29.79,10,10,10,21,10,26,0.00,1,,284
2013-2-14,44,34,22,32,23,16,87,66,39,30.30,30.10,29.91,10,10,10,28,13,39,0.00,2,,326
2013-2-15,37,26,14,23,13,6,89,65,32,30.34,30.31,30.27,10,10,10,23,9,32,0.00,2,,312
2013-2-16,57,36,14,28,20,8,78,59,31,30.31,30.05,29.93,10,10,10,18,7,26,0.00,3,,239
2013-2-17,66,46,26,28,22,15,80,48,14,29.93,29.71,29.50,10,10,10,24,8,31,0.00,0,,207
2013-2-18,44,34,25,30,22,16,69,55,36,30.10,29.84,29.55,10,10,10,30,21,39,0.00,2,,342
2013-2-19,35,25,15,18,10,3,79,56,32,30.28,30.20,30.13,10,10,10,17,10,16,0.03,0,,24
2013-2-20,23,18,12,20,11,3,90,73,45,30.20,30.08,29.98,10,6,0,22,17,29,0.01,6,Snow,103
2013-2-21,20,18,16,17,15,13,89,87,81,30.00,29.89,29.82,7,2,0,22,17,26,0.06,8,Snow,41
2013-2-22,24,15,6,15,10,3,90,80,66,30.00,29.95,29.89,10,10,10,15,9,17,0.01,0,Snow,293
2013-2-23,33,21,9,27,17,6,94,81,65,29.94,29.82,29.73,10,9,0,15,6,20,0.00,0,Fog,215
2013-2-24,31,25,19,30,24,18,96,93,87,30.04,29.89,29.78,7,2,0,20,6,21,0.03,8,Fog-Snow,18
2013-2-25,34,28,19,32,25,17,97,85,72,30.05,29.98,29.89,10,8,0,18,12,,0.03,3,Fog,3
2013-2-26,28,20,12,24,18,9,93,88,80,29.94,29.86,29.81,10,8,0,12,7,,0.00,4,Fog,344
2013-2-27,35,30,25,29,24,20,89,76,68,30.16,30.07,29.93,10,10,10,21,12,25,0.00,5,,336
2013-2-28,35,26,16,26,23,14,93,80,68,30.22,30.19,30.15,10,9,0,16,9,21,0.00,4,Fog,335